Preview of NWS' New Version of Forecast
This preview is not operational and should not be used for support decisions.

Regional Weather Roundup (RWR)

Issued by National Weather Service (NWS)

                            
000
ASUS42 KTBW 200918
RWRFL 
FLORIDA REGIONAL WEATHER ROUNDUP
NATIONAL WEATHER SERVICE TAMPA BAY RUSKIN FL
500 AM EDT FRI SEP 20 2019

NOTE: "FAIR" INDICATES FEW OR NO CLOUDS BELOW 12,000 FEET WITH NO
SIGNIFICANT WEATHER AND/OR OBSTRUCTIONS TO VISIBILITY.

FLZ001>010-012>015-112-114-115-201000-
PANHANDLE FLORIDA
  
CITY           SKY/WX    TMP DP  RH WIND       PRES   REMARKS
PENSACOLA      FAIR      76  64  66 E7        30.08S                  
PENSACOLA NAS  FAIR      77  68  73 E13       30.08R                  
MILTON NAS     FAIR      70  58  65 E8        30.11R                  
CRESTVIEW      FAIR      66  56  70 NE3       30.14R                  
DUKE FIELD     FAIR      69  58  68 E3        30.12R                  
VALPARAISO     FAIR      74  63  66 E9        30.10R                  
MARY ESTHER    PTCLDY    75  64  67 E15G21    30.09R                  
TRI COUNTY     FAIR      66  58  75 NE5       30.15                   
PANAMA CITY    FAIR      71  61  70 NE7       30.10S                  
TYNDALL AFB    FAIR      71  64  78 NE7       30.09S                  
APALACHICOLA   FAIR      73  65  75 NE7       30.08F                  

STATION/POSITION SKY/WX   TEMP    WIND        PRES    WAVE   SWELL
                          AIR SEA DIR/SP/G            HT/PER HT/PER
                          (F)     (DEG/KT/KT) (MB)    (FT/S) (FT/S)
30.1N   87.6W              82 85  100/ 19/ 23 1017.8R   5/ 7
29.2N   88.2W              84     100/ 16/ 19 1016.8S   5/ 6
28.8N   86.0W                 85   90/ 19/ 25 1017.0R   9/ 7
PANAMA CITY BEAC           73 83   90/  9/ 14 1019.8S
TOWER C                    77      80/ 21/ 23 1018.7R
28.5N   84.5W              80      70/ 17/ 21 1017.7R   6/ 6

$$
FLZ011-016>038-118-127-128-134-139-239-201000-
NORTH FLORIDA
  
CITY           SKY/WX    TMP DP  RH WIND       PRES   REMARKS
MARIANNA       FAIR      64  60  87 NE7       30.14R                  
TALLAHASSEE    FAIR      71  62  73 E8        30.12S                  
PERRY          FAIR      68  64  85 NE7       30.12R                  
LIVE OAK       PTCLDY    66  63  88 N5        30.12R                  
CROSS CITY     FAIR      68  66  93 NE7       30.09R                  
LAKE CITY      FAIR      64  63  94 NE7       30.12R                  
GAINESVILLE    MOCLDY    69  66  90 N8        30.12R                  
WILLISTON      FAIR      69  67  96 NE8       30.08R                  
PALATKA        CLOUDY    70  66  88 E8        30.10R                  
MAYPORT NAS    MOCLDY    78  65  63 E17       30.09S                  
JACKSONVILLE   CLOUDY    73  68  84 N6        30.10R                  
JAX NAS        FAIR      74  69  85 NE9       30.10R                  
JAX CECIL      FAIR      66  66 100 CALM      30.10R                  
FERNANDINA BEA CLOUDY    75  69  81 NE7       30.11R                  
ST AUGUSTINE   CLOUDY   N/A N/A N/A E21       30.09R                  
PALM COAST     CLOUDY    74  69  84 E10       30.07R                  

STATION/POSITION SKY/WX   TEMP    WIND        PRES    WAVE   SWELL
                          AIR SEA DIR/SP/G            HT/PER HT/PER
                          (F)     (DEG/KT/KT) (MB)    (FT/S) (FT/S)
SHELL POINT      NOT AVBL
KEATON BEACH               68      30/  6/  8 1019.5R
CEDAR KEY                  71      40/  9/ 12 1018.4R
FERNANDINA                 77 81   30/  2/  8 1020.2S
30.7N   81.3W                 82                N/A     6/14   3/14
MAYPORT                    79 81   60/ 17/ 19 1019.2F
31.4N   80.9W              78 81   70/ 16/ 19 1019.9R   6/ 7   3/13
ST AUGUSTINE               80 81   70/ 20/ 24 1018.8R

$$
FLZ040-043>046-052-053-057-058-063-144-201000-
INTERIOR CENTRAL FLORIDA
  
CITY           SKY/WX    TMP DP  RH WIND       PRES   REMARKS
OCALA          MOCLDY    70  69  97 N5        30.08S                  
LEESBURG       FAIR      71  68  90 N6        30.06S                  
SANFORD        MOCLDY    73  69  87 NE7       30.04S                  
ORLANDO EXEC   LGT RAIN  74  70  87 E12       30.04S                  
ORLANDO INTL   FAIR      73  69  87 NE10      30.03F                  
KISSIMMEE      CLOUDY    74  70  87 NE7       30.04S                  
WINTER HAVEN   FAIR      74  69  85 NE9       30.03F                  
BARTOW           N/A     73  68  83 NE6       30.02R                  
SEBRING        FAIR      70  68  93 MISG      30.00S                  
OKEECHOBEE       N/A     70  68  94 NE3       29.98S                  

$$
FLZ041-047-054-059-064-141-147-201000-
EAST CENTRAL FLORIDA
  
CITY           SKY/WX    TMP DP  RH WIND       PRES   REMARKS
DAYTONA BEACH  FAIR      76  69  79 E7        30.05S                  
DELAND         CLOUDY    72  70  94 CALM      30.06R                  
JFK SPACE CTR  FAIR      78  52  40 E14G21    30.03R                  
CAPE CANAVERAL FAIR      78  71  77 E14G23    30.02S                  
PATRICK AFB    FAIR      79  72  78 E24G30    30.01S                  
MELBOURNE      LGT RAIN  79  72  79 E15       30.01R                  
VERO BEACH     MOCLDY    79  70  74 NE18G25   30.00R                  
FT PIERCE      MOCLDY    78  69  73 E12G20    29.99R                  
STUART         MOCLDY    79  68  69 E16G22    29.99S                  

STATION/POSITION SKY/WX   TEMP    WIND        PRES    WAVE   SWELL
                          AIR SEA DIR/SP/G            HT/PER HT/PER
                          (F)     (DEG/KT/KT) (MB)    (FT/S) (FT/S)
28.5N   80.2W              81 83   80/ 21/ 29 1017.0R  13/13   8/13
28.9N   78.5W              79 81   70/ 21/ 27 1017.9R
TRIDENT PIER               78 82   70/ 14/ 20 1018.1S
28.4N   80.5W                 82                N/A     5/ 6   2/13
27.5N   80.2W                 83                N/A    10/13   7/13

$$
FLZ050-056-061-142-242-148-248-149-249-151-251-155-255-
160-260-201000-
WEST CENTRAL FLORIDA
  
CITY           SKY/WX    TMP DP  RH WIND       PRES   REMARKS
CRYSTAL RIVER  FAIR      70  68  94 NE6       30.06S                  
INVERNESS      FAIR      70  70 100 N3        30.07R                  
BROOKSVILLE    FAIR      70  66  87 NE9       30.06R                  
CLEARWATER AIR FAIR      70  68  94 NE5       30.02R                  
ST PETE CLEARW FAIR      76  68  76 NE14      30.02R                  
TAMPA INTL     FAIR      73  68  84 NE6       30.03S                  
TAMPA EXEC     MOCLDY    70  70 100 CALM      30.04R                  
PLANT CITY     FAIR      72  70  94 NE7       30.05R                  
MACDILL AFB    FAIR      72  67  84 E12       30.01S                  
PETER O KNIGHT FAIR      72  72 100 NE9       30.02R                  
ST PETERSBURG  FAIR      77  70  79 NE18      30.00S                  
SARASOTA       FAIR      75  68  78 E9        29.98S                  
VENICE         FAIR      73  68  83 NE12      29.99R                  

STATION/POSITION SKY/WX   TEMP    WIND        PRES    WAVE   SWELL
                          AIR SEA DIR/SP/G            HT/PER HT/PER
                          (F)     (DEG/KT/KT) (MB)    (FT/S) (FT/S)
27.3N   84.2W                 85                N/A     7/ 6
CLEARWATER BEACH           73 85   30/  7/  9 1016.7F
MIDDLE TAMPA BAY           76      70/ 17/ 20 1016.1F
VENICE                     73 85   50/  9/ 11 1015.3R

$$
FLZ066-069-070-075>078-162-262-165-265-201000-
SOUTHWEST FLORIDA AND KEYS
  
CITY           SKY/WX    TMP DP  RH WIND       PRES   REMARKS
PUNTA GORDA    CLOUDY    72  70  93 NE8       29.99S                  
FT MYERS       FAIR      73  68  84 E8        29.96S                  
SOUTHWEST INTL FAIR      73  69  87 NE10      29.97R                  
NAPLES         FAIR      74  70  87 NE10      29.95S                  
MARCO ISLAND   FAIR      72  69  90 NE9       29.96S                  
IMMOKALEE      MOCLDY    72  68  88 CALM      29.95S                  
MARATHON       MOCLDY    81  72  74 E14       29.89F                  
KEY WEST NAS   FAIR      80  72  76 NE12      29.90S                  
KEY WEST INTL  FAIR      80  72  76 NE15G23   29.90S                  

STATION/POSITION SKY/WX   TEMP    WIND        PRES    WAVE   SWELL
                          AIR SEA DIR/SP/G            HT/PER HT/PER
                          (F)     (DEG/KT/KT) (MB)    (FT/S) (FT/S)
NAPLES                     74 84   50/  7/ 10 1014.2S
26.0N   85.6W              83 86   80/ 19/ 25 1014.3
DRY TORTUGAS               82      80/ 24/ 27 1012.4F
SAND KEY                   80      50/ 23/ 27 1010.5
SOMBRERO KEY               83      70/ 20/ 25 1012.0
LONG KEY                   81                 1011.3

$$
FLZ067-068-071>074-168-172>174-201000-
SOUTHEAST FLORIDA 
  
CITY           SKY/WX    TMP DP  RH WIND       PRES   REMARKS
W PALM BEACH   MOCLDY    79  70  74 E17       29.96F                  
FT LAUDER-EXEC FAIR      79  69  71 NE10      29.94S                  
FT LAUDERDALE  FAIR      80  69  69 NE15      29.93S                  
POMPANO BEACH  FAIR      81  68  64 E16G22    29.94S                  
PEMBROKE PINES FAIR      80  68  66 NE10      29.95S                  
OPA LOCKA      FAIR      80  69  69 NE13      29.94S                  
MIAMI          MOCLDY    81  68  64 NE9       29.93F                  
WEST KENDALL   FAIR      78  71  79 NE8       29.93S                  
HOMESTEAD      FAIR      79  70  74 NE10      29.92R                  

STATION/POSITION SKY/WX   TEMP    WIND        PRES    WAVE   SWELL
                          AIR SEA DIR/SP/G            HT/PER HT/PER
                          (F)     (DEG/KT/KT) (MB)    (FT/S) (FT/S)
VIRGINIA KEY               81 84   30/ 12/ 16 1013.0F
LAKE WORTH                 80 82   60/ 18/ 21 1015.3F
FOWEY ROCKS                81 84   70/ 22/ 24 1013.3F
SETTLEMENT POINT           78      60/ 16/ 19 1014.8S

$$